This is the latest recevied weather packets stored in our database for station/object YU7OR-2. If no packets are shown the sender has not sent any weather packets the latest 10 day(s).
| Time | Temp. | Humidity | Pressure | Rain* | Wind** | Luminosity | Snow |
|---|---|---|---|---|---|---|---|
| 1777723244 | 22.22° C | 45% | 1019.5 hPa | 0 mm | - | - | - |
| 1777722959 | 22.78° C | 46% | 1019.6 hPa | 0 mm | - | - | - |
| 1777722684 | 22.78° C | 45% | 1019.4 hPa | 0 mm | - | - | - |
| 1777722409 | 22.78° C | 45% | 1019.4 hPa | 0 mm | - | - | - |
| 1777722131 | 22.78° C | 45% | 1019.6 hPa | 0 mm | - | - | - |
| 1777721889 | 22.78° C | 46% | 1019.6 hPa | 0 mm | - | - | - |
| 1777721599 | 22.78° C | 46% | 1019.7 hPa | 0 mm | - | - | - |
| 1777721329 | 22.22° C | 45% | 1019.9 hPa | 0 mm | - | - | - |
| 1777721074 | 22.22° C | 45% | 1020 hPa | 0 mm | - | - | - |
| 1777720804 | 22.22° C | 45% | 1020 hPa | 0 mm | - | - | - |
| 1777720539 | 22.22° C | 45% | 1019.8 hPa | 0 mm | - | - | - |
| 1777720244 | 21.67° C | 46% | 1019.9 hPa | 0 mm | - | - | - |
| 1777719984 | 21.67° C | 46% | 1019.9 hPa | 0 mm | - | - | - |
| 1777719729 | 21.67° C | 46% | 1020.1 hPa | 0 mm | - | - | - |
| 1777719439 | 21.11° C | 46% | 1020.2 hPa | 0 mm | - | - | - |
| 1777719189 | 21.11° C | 45% | 1020.3 hPa | 0 mm | - | - | - |
| 1777718944 | 20.56° C | 45% | 1020.3 hPa | 0 mm | - | - | - |
| 1777718689 | 20.56° C | 47% | 1020.3 hPa | 0 mm | - | - | - |
| 1777718434 | 21.11° C | 47% | 1020.4 hPa | 0 mm | - | - | - |
| 1777718159 | 21.11° C | 47% | 1020.4 hPa | 0 mm | - | - | - |
| 1777717889 | 21.67° C | 47% | 1020.7 hPa | 0 mm | - | - | - |
| 1777717614 | 21.67° C | 47% | 1020.7 hPa | 0 mm | - | - | - |
| 1777717344 | 21.67° C | 46% | 1020.7 hPa | 0 mm | - | - | - |
| 1777717059 | 21.67° C | 47% | 1020.9 hPa | 0 mm | - | - | - |
| 1777716792 | 21.67° C | 46% | 1020.9 hPa | 0 mm | - | - | - |
* Rain latest hour (hover to see other rain measurements)
** Current wind speed in m/s (hover to see current wind gust speed)